User: anonymous   Login
Location: Unspecified
(0.0000°N, 0.0000°E)
Time: 10:48:58
(UTC+00:00)
Language:

Oceansat - Orbit

View from above orbital plane
View from above orbital plane
View from above satellite
View from above satellite

Ground track
Ground track

The orbit data is extracted from the following two-line orbital elements,

1 25758U 99029C   18200.31285182  .00000007  00000-0  12201-4 0  9994
2 25758  98.1206 271.8412 0004443 112.3124 247.8543 14.52430101 14378
Epoch (UTC): 19 July 2018 07:30:30
Eccentricity: 0.0004443
inclination: 98.1206°
perigee height: 714 km
apogee height: 721 km
right ascension of ascending node: 271.8412°
argument of perigee: 112.3124°
revolutions per day: 14.52430101
mean anomaly at epoch: 247.8543°
orbit number at epoch: 1437

The dashed part of the orbit path shows where the satellite is in the earth's shadow,  

DLR